Location: Amsterdam
(30.7274°N, 84.4357°W)
Time: 19:36:14
(UTC+00:00)

Altair - Pass Details

Date: 12 August 2024
Orbit: 1501 x 1682 km, 47.2° (Epoch: 07 September)

Event Time Altitude Azimuth Distance (km) Brightness Sun altitude
Rises 19:44:58 0° 286° (WNW) 4,856 10.5 57.7°
Reaches altitude 10° 19:48:47 10° 297° (WNW) 3,842 10.1 56.9°
Maximum altitude 19:56:57 29° 355° (N) 2,582 9.0 55.3°
Drops below altitude 10° 20:04:53 10° 53° (NE) 3,722 9.3 53.7°
Sets 20:08:31 0° 64° (ENE) 4,681 9.7 52.9°
